This is the latest recevied weather packets stored in our database for station/object DB8NZ-22. If no packets are shown the sender has not sent any weather packets the latest 10 day(s).
| Time | Temp. | Humidity | Pressure | Rain* | Wind** | Luminosity | Snow |
|---|---|---|---|---|---|---|---|
| 1777788245 | 13.33° C | 54% | 1016.3 hPa | - | - | - | - |
| 1777787345 | 12.78° C | 55% | 1016.3 hPa | - | - | - | - |
| 1777786445 | 12.22° C | 56% | 1016.2 hPa | - | - | - | - |
| 1777785545 | 11.11° C | 56% | 1016.2 hPa | - | - | - | - |
| 1777784645 | 10.56° C | 56% | 1016.1 hPa | - | - | - | - |
| 1777783745 | 10.56° C | 57% | 1016.1 hPa | - | - | - | - |
| 1777782845 | 10° C | 56% | 1016.1 hPa | - | - | - | - |
| 1777781945 | 10° C | 57% | 1016.2 hPa | - | - | - | - |
| 1777781044 | 10° C | 57% | 1016.1 hPa | - | - | - | - |
| 1777780144 | 10° C | 55% | 1016.2 hPa | - | - | - | - |
| 1777779244 | 10° C | 57% | 1016.4 hPa | - | - | - | - |
| 1777778344 | 10° C | 55% | 1016.2 hPa | - | - | - | - |
| 1777777444 | 10° C | 54% | 1016 hPa | - | - | - | - |
| 1777774744 | 10.56° C | 53% | 1016.1 hPa | - | - | - | - |
| 1777773844 | 10.56° C | 52% | 1016.2 hPa | - | - | - | - |
| 1777772944 | 11.11° C | 52% | 1016.3 hPa | - | - | - | - |
| 1777772044 | 11.11° C | 52% | 1016.2 hPa | - | - | - | - |
| 1777771534 | 11.11° C | 51% | 1016.4 hPa | - | - | - | - |
| 1777770634 | 11.11° C | 51% | 1016.4 hPa | - | - | - | - |
| 1777769734 | 11.11° C | 51% | 1016.5 hPa | - | - | - | - |
| 1777768834 | 11.67° C | 49% | 1016.6 hPa | - | - | - | - |
| 1777767934 | 11.67° C | 49% | 1016.6 hPa | - | - | - | - |
| 1777767033 | 12.22° C | 49% | 1016.7 hPa | - | - | - | - |
| 1777766133 | 12.22° C | 49% | 1016.8 hPa | - | - | - | - |
| 1777765233 | 12.22° C | 48% | 1016.8 hPa | - | - | - | - |
* Rain since midnight (hover to see other rain measurements)
** Current wind speed in m/s (hover to see current wind gust speed)